www.pogodaiklimat.ru

Погода и климат >> Архив погоды >> Австралия >> Квинсленд >> Клермон


ПОГОДА в Клермоне

  • Прогноз погоды в Клермоне
  • Монитор погоды в Клермоне

АРХИВ ПОГОДЫ в Клермоне

Время (UTC), дата Ветер
(напр.,м/с)
 
Видим.   Явления Облачность Т
(С)
Тd
(С)
f
(%)
Тe
(С)
Тes
(С)
Комфортность P
(гПа)
Po
(гПа)
Тmin
(С)
Tmax
(С)
R
(мм)
R24
(мм)
S
(см)
20 8.02 ЮЗ 1 н/о н/о +19.2 +17.5 90 +22 +22 комфорт 1002.8 972.7
21 8.02 Ю 2 н/о н/о +22.1 +19.5 85 +28 +28 душно 1003.5 973.4
23 8.02 ЮВ 3 н/о н/о +26.1 +19.7 68 +32 +32 очень
душно
1003.8 973.7
00 9.02 В 2 н/о н/о +28.1 +19.1 58 +33 +33 очень
душно
1003.9 973.8
02 9.02 ЮВ 2 н/о н/о +31.2 +18.5 47 +36 +36 очень
душно
1002.5 972.4 +19.1
03 9.02 ЮВ 3 н/о н/о +32.8 +17.0 39 +36 +36 очень
душно
1001.6 971.6
05 9.02 Ю 4 н/о н/о +34.1 +15.5 33 +36 +36 душно 1000.0 970.0
06 9.02 Ю 4 н/о н/о +35.0 +14.8 30 +36 +36 очень
жарко
999.3 969.3
08 9.02 Ю 2 н/о н/о +35.2 +16.0 32 +37 +37 очень
душно
999.0 969.0
09 9.02 штиль 0 н/о н/о +32.6 +15.1 35 +35 +35 душно 999.3 969.3
11 9.02 С 1 н/о н/о +27.3 +17.5 55 +31 +31 душно 1000.8 970.8
12 9.02 С 2 н/о н/о +28.2 +17.4 52 +32 +32 душно 1001.4 971.4
14 9.02 С 2 н/о н/о +26.8 +17.0 55 +31 +31 душно 1001.8 971.7 +36.1
15 9.02 С 2 н/о н/о +27.0 +17.2 55 +31 +31 душно 1001.6 971.6
17 9.02 С 3 н/о н/о +26.0 +17.1 58 +30 +30 душно 1000.6 970.6
18 9.02 С 1 н/о н/о +25.2 +16.6 59 +29 +29 душно 1000.5 970.5
20 9.02 штиль 0 н/о н/о +22.4 +17.3 73 +27 +27 душно 1001.5 971.5
21 9.02 штиль 0 н/о н/о +25.3 +18.0 64 +30 +30 душно 1002.4 972.3
23 9.02 СВ 1 н/о н/о +30.2 +17.6 47 +34 +34 очень
душно
1003.6 973.5
00 10.02 ЮВ 2 н/о н/о +32.3 +18.5 44 +37 +37 очень
душно
1003.6 973.5
02 10.02 ЮВ 3 н/о н/о +35.9 +17.1 33 +39 +39 очень
душно
1002.8 972.7 +21.9
03 10.02 Ю 2 н/о н/о +36.8 +16.4 30 +39 +39 очень
душно
1002.1 972.0
05 10.02 Ю 3 н/о н/о +38.9 +14.0 23 +39 +39 очень
жарко
1000.1 970.1
06 10.02 ЮЗ 6 н/о н/о +38.7 +11.7 20 +38 +38 очень
жарко
999.8 969.8
08 10.02 СВ 4 н/о н/о +32.9 +16.7 38 +36 +36 очень
душно
1001.1 971.1
09 10.02 С 3 н/о н/о +32.3 +16.6 39 +35 +35 очень
душно
1001.5 971.5
11 10.02 С 4 н/о н/о +30.8 +18.2 47 +35 +35 очень
душно
1003.8 973.7
12 10.02 С 3 н/о н/о +29.3 +18.7 53 +34 +34 очень
душно
1004.3 974.2
14 10.02 С 3 н/о н/о +28.3 +17.5 52 +32 +32 душно 1004.0 973.9 +39.9
15 10.02 СЗ 2 н/о н/о +26.9 +17.4 56 +31 +31 душно 1003.7 973.6
17 10.02 В 2 н/о н/о +25.0 +18.0 65 +29 +29 душно 1003.8 973.7
18 10.02 ЮВ 1 н/о н/о +24.1 +17.8 68 +28 +28 душно 1003.8 973.7
20 10.02 В 1 н/о н/о +23.1 +17.1 69 +28 +28 душно 1005.5 975.3
21 10.02 В 1 н/о н/о +25.5 +18.9 67 +30 +30 душно 1006.4 976.2
23 10.02 СВ 3 н/о н/о +30.6 +20.8 56 +38 +38 очень
душно
1006.8 976.6
00 11.02 С 3 н/о н/о +32.0 +18.6 45 +37 +37 очень
душно
1006.4 976.2
02 11.02 С 3 н/о н/о +35.2 +16.0 32 +37 +37 очень
душно
1004.8 974.7 +22.0
03 11.02 СВ 2 н/о н/о +36.3 +14.3 27 +37 +37 очень
жарко
1003.7 973.6
05 11.02 З 4 н/о н/о +37.6 +10.0 19 +36 +36 очень
жарко
1001.6 971.6
06 11.02 СЗ 5 н/о н/о +39.0 +6.7 14 +36 +36 очень
жарко
1001.2 971.2
08 11.02 З 3 н/о н/о +37.9 +2.4 11 +35 +35 очень
жарко
1001.2 971.2
09 11.02 СЗ 4 н/о н/о +35.2 +2.6 13 +32 +32 жарко 1001.9 971.8
11 11.02 СЗ 3 н/о н/о +31.4 +2.6 16 +29 +29 жарко 1003.4 973.3
12 11.02 СЗ 4 н/о н/о +31.0 +3.1 17 +29 +29 жарко 1003.9 973.8
14 11.02 СЗ 3 н/о н/о +29.3 +3.3 19 +27 +27 жарко 1004.4 974.3 +40.2
15 11.02 СЗ 3 н/о н/о +27.3 +3.7 22 +26 +26 жарко 1004.4 974.3
17 11.02 СЗ 3 н/о н/о +25.8 +4.3 25 +25 +25 комфорт 1004.0 973.9
18 11.02 СЗ 2 н/о н/о +24.6 +4.4 27 +24 +24 комфорт 1004.3 974.2
20 11.02 С 1 н/о н/о +18.6 +7.4 48 +20 +20 1005.9 975.7
21 11.02 штиль 0 н/о н/о +24.6 +6.4 31 +25 +25 комфорт 1006.5 976.3
23 11.02 ЮЗ 5 н/о н/о +33.8 +4.5 16 +31 +31 жарко 1006.5 976.3
00 12.02 З 5 н/о н/о +35.2 +2.6 13 +32 +32 жарко 1006.2 976.0
02 12.02 З 3 н/о н/о +36.7 +0.1 10 +33 +33 жарко 1004.7 974.6 +18.7
03 12.02 СЗ 3 н/о н/о +38.4 +1.4 10 +35 +35 очень
жарко
1003.6 973.5
05 12.02 ЮЗ 6 н/о н/о +39.3 -1.0 8 +35 +35 очень
жарко
1001.8 971.7
06 12.02 З 4 н/о н/о +39.0 -1.2 8 +35 +35 очень
жарко
1001.4 971.4
08 12.02 З 3 н/о н/о +37.8 -2.1 8 +34 +34 очень
жарко
1001.8 971.7
09 12.02 З 1 н/о н/о +35.1 -1.1 10 +31 +31 жарко 1002.3 972.2
11 12.02 З 1 н/о н/о +25.2 +5.4 28 +25 +25 комфорт 1003.6 973.5
12 12.02 З 2 н/о н/о +25.4 +5.1 27 +25 +25 комфорт 1003.9 973.8
14 12.02 штиль 0 н/о н/о +20.3 +7.0 42 +21 +21 комфорт 1003.9 973.8 +40.1
15 12.02 штиль 0 н/о н/о +18.7 +7.2 47 +19 +19 1003.6 973.5
17 12.02 С 1 н/о н/о +19.5 +3.6 35 +21 +21 комфорт 1003.6 973.5
18 12.02 штиль 0 н/о н/о +18.0 +5.2 43 +18 +18 1003.9 973.8
20 12.02 штиль 0 н/о н/о +15.8 +6.0 52 +16 +16 1005.2 975.0
21 12.02 СЗ 1 н/о н/о +21.8 +6.5 37 +23 +23 комфорт 1006.1 975.9
23 12.02 ЮЗ 2 н/о н/о +33.9 +3.7 15 +31 +31 жарко 1006.9 976.7
00 13.02 ЮЗ 2 н/о н/о +36.8 +0.2 10 +33 +33 жарко 1006.6 976.4
02 13.02 З 3 н/о н/о +39.6 -0.8 8 +36 +36 очень
жарко
1005.4 975.2 +15.7
03 13.02 Ю 2 н/о н/о +40.6 -1.9 7 +37 +37 очень
жарко
1004.4 974.3
05 13.02 ЮЗ 4 н/о н/о +41.5 -1.2 7 +38 +38 очень
жарко
1002.7 972.6
06 13.02 ЮЗ 6 н/о н/о +41.1 -1.5 7 +37 +37 очень
жарко
1002.3 972.2
08 13.02 ЮЗ 4 н/о н/о +39.7 -0.7 8 +36 +36 очень
жарко
1002.7 972.6
09 13.02 З 2 н/о н/о +37.0 -1.1 9 +33 +33 жарко 1003.4 973.3
11 13.02 З 2 н/о н/о +29.5 +4.2 20 +28 +28 жарко 1004.4 974.3
12 13.02 З 2 н/о н/о +28.3 +5.2 23 +27 +27 жарко 1004.6 974.5
14 13.02 ЮЗ 3 н/о н/о +32.8 +3.7 16 +30 +30 жарко 1004.4 974.3 +42.5
15 13.02 ЮВ 2 н/о н/о +31.0 +3.9 18 +29 +29 жарко 1005.3 975.1
17 13.02 Ю 3 н/о н/о +31.6 +3.6 17 +29 +29 жарко 1004.8 974.7
18 13.02 Ю 4 н/о н/о +31.0 +3.9 18 +29 +29 жарко 1005.2 975.0
20 13.02 ЮВ 4 н/о н/о +28.1 +12.8 39 +30 +30 жарко 1007.0 976.8
21 13.02 Ю 3 н/о н/о +27.4 +18.4 58 +32 +32 очень
душно
1007.9 977.7
23 13.02 ЮВ 5 н/о н/о +30.9 +20.2 53 +37 +37 очень
душно
1008.5 978.2
00 14.02 ЮВ 3 н/о н/о +33.2 +18.6 42 +38 +38 очень
душно
1008.8 978.5
02 14.02 Ю 3 н/о н/о +35.8 +15.5 30 +38 +38 очень
душно
1007.9 977.7 +27.3
03 14.02 Ю 2 н/о н/о +37.7 +12.3 22 +37 +37 очень
жарко
1007.0 976.8
05 14.02 ЮВ 3 н/о н/о +39.2 +9.7 17 +38 +38 очень
жарко
1005.3 975.1
06 14.02 В 2 н/о н/о +38.8 +6.5 14 +36 +36 очень
жарко
1005.1 974.9
08 14.02 ЮЗ 2 н/о н/о +38.6 +4.1 12 +36 +36 очень
жарко
1005.7 975.5
09 14.02 СВ 2 н/о н/о +34.4 +13.3 28 +35 +35 очень
жарко
1006.8 976.6
11 14.02 СВ 1 н/о н/о +30.9 +14.1 36 +33 +33 душно 1008.3 978.1
12 14.02 СВ 3 н/о н/о +30.8 +17.8 46 +35 +35 очень
душно
1009.3 979.0
14 14.02 СВ 6 н/о н/о +27.9 +19.4 60 +34 +34 очень
душно
1010.7 980.4 +40.9
15 14.02 СВ 2 н/о н/о +26.9 +20.5 68 +33 +33 очень
душно
1010.7 980.4
17 14.02 В 2 н/о н/о +26.6 +20.7 70 +33 +33 очень
душно
1011.3 981.0
18 14.02 В 2 н/о н/о +25.7 +20.5 73 +32 +32 очень
душно
1011.6 981.3
20 14.02 В 1 н/о н/о +25.0 +19.6 72 +30 +30 душно 1012.8 982.4
21 14.02 В 1 н/о н/о +25.9 +20.0 70 +32 +32 очень
душно
1013.5 983.1
23 14.02 В 4 н/о н/о +29.7 +19.1 53 +35 +35 очень
душно
1014.0 983.6
00 15.02 В 4 н/о н/о +30.1 +18.5 50 +35 +35 очень
душно
1014.1 983.7
02 15.02 В 3 н/о н/о +33.0 +16.8 38 +36 +36 очень
душно
1012.9 982.5 +24.9
03 15.02 В 4 н/о н/о +34.6 +16.9 35 +38 +38 очень
душно
1011.9 981.5
05 15.02 СВ 4 н/о н/о +34.7 +15.1 31 +36 +36 душно 1010.1 979.8
06 15.02 ЮВ 2 н/о н/о +35.6 +14.8 29 +37 +37 душно 1009.6 979.3
08 15.02 СВ 4 н/о н/о +34.4 +15.8 33 +37 +37 очень
душно
1009.6 979.3
09 15.02 СВ 4 н/о н/о +32.8 +16.2 37 +36 +36 очень
душно
1010.3 980.0
11 15.02 В 3 н/о н/о +30.1 +16.9 45 +34 +34 очень
душно
1012.8 982.4
12 15.02 С 3 н/о н/о +21.1 +19.9 93 +26 +26 душно 1013.4 983.0
14 15.02 штиль 0 н/о {туман} н/о +22.9 +19.5 81 +29 +29 очень
душно
1013.3 982.9 +37.1
15 15.02 штиль 0 н/о н/о +22.5 +20.4 88 +29 +29 очень
душно
1013.2 982.8
17 15.02 штиль 0 н/о {туман} н/о +22.7 +20.4 87 +29 +29 очень
душно
1013.2 982.8
18 15.02 штиль 0 н/о н/о +23.2 +20.7 86 +31 +31 очень
душно
1013.4 983.0

 

Местоположение метеостанции Клермон (Квинсленд, Австралия): широта -22.77 долгота 147.62 высота над уровнем моря 271 м.

В архиве по умолчанию представлена погода в Клермоне за последнюю неделю. Архивные данные за месяц целиком и за предыдущие месяцы, начиная с января 2011 года, Вы можете получить, выбрав интересующий диапазон дат из раскрывающегося списка и нажав кнопку "Ввод!".


*Определитесь, кто Вы:
робот инопланетянин человек

Внимание! Время в таблицах - всемирное. Для получения местного времени необходимо прибавить поправку, которая равна 10 ч.

Смотрите также архив погоды в соседних городах и на ближайших метеорологических станциях:

Погода в Эмералде (Квинсленд, Австралия) (105 км)
Погода в Лочингтоне (Квинсленд, Австралия) (129 км)
Погода в Сент-Лоренсе (Квинсленд, Австралия) (201 км)
Погода в Роллстоне (Квинсленд, Австралия) (215 км)
Погода в Маккае (Квинсленд, Австралия) (240 км)
Погода в Маккае (Квинсленд, Австралия) (247 км)
Погода в Уильямсоне (Квинсленд, Австралия) (265 км)
Погода в Прозерпине (Квинсленд, Австралия) (269 км)
Погода в Блэколле (Квинсленд, Австралия) (289 км)
Погода на Острове Мидл (Квинсленд, Австралия) (299 км)

Пояснения к столбцам:

Ветер - указаны скорость ветра в м/с - средняя за 10 мин, порывы в срок и между сроками (в фигурных скобках) и направление, откуда дует ветер: С - северный, СВ - северо-восточный, В - восточный, ЮВ - юго-восточный, Ю - южный, ЮЗ - юго-западный, З - западный, СЗ - северо-западный.
Видимость - горизонтальная дальность видимости в метрах или километрах. При видимости от 1 до 10 км при отсутствии осадков обычно наблюдается дымка, при ухудшении видимости до 1 км и менее - туман. В сухую погоду видимость может ухудшаться дымом, пылью или мглою.
Явления - указаны атмосферные явления, наблюдавшиеся в срок или в последний час перед сроком; фигурными скобками обозначены явления, наблюдавшиеся между сроками (за 1-3 часа до срока); квадратными скобками обозначены град или гололедные отложения с указанием их диаметра в мм.
Облачность - указаны через наклонную черту общая и нижняя облачность в баллах и высота нижней границы облаков в метрах; квадратными скобками обозначены формы облаков: Ci - перистые, Cs - перисто-слоистые, Cc - перисто-кучевые, Ac - высококучевые, As - высокослоистые, Sc - слоисто-кучевые, Ns - слоисто-дождевые, Cu - кучевые, Cb - кучево-дождевые. Подробнее классификацию облаков см. в Атласе облаков (PDF).
T - Температура воздуха - температура, измеренная на высоте 2 м над землей.
Td - Температура точки росы - температура, при понижении до которой содержащийся в воздухе водяной пар достигнет насыщения.
f - Относительная влажность воздуха - влажноcть воздуха, измеренная на высоте 2 м над землей.
Te - Эффективная температура - температура, которую ощущает одетый по сезону человек в тени. Характеристика душности погоды. При расчете учитывается влияние влажности воздуха и скорости ветра на теплоощущения человека.
Tes - Эффективная температура на солнце - температура, которую ощущает человек, с поправкой на солнечный нагрев. Характеристика знойности погоды. Зависит от высоты солнца над горизонтом, облачности и скорости ветра. Ночью, в пасмурную погоду, а также при ветре 12 м/с и более поправка равна нулю.
P - Атмосферное давление - приведенное к уровню моря атмосферное давление.
Po - Атмосферное давление - измеренное на уровне метеостанции атмосферное давление.
Tmin - Минимальная температура - минимум температуры воздуха на высоте 2 м над землей.
Tmax - Максимальная температура - максимум температуры воздуха на высоте 2 м над землей.
R - Количество осадков - Количество выпавших осадков за период времени, мм. При наведении курсора мыши на число - период времени, за который выпало указанное количество осадков.
R24 - Количество осадков - Количество выпавших осадков за 24 часа, мм.
S - Снежный покров - Высота снежного покрова, см. При наведении курсора мыши на число - состояние снежного покрова и степень покрытия местности в баллах.